Weather History for KLBF - July, 2013

Change the Weather History Date:

Sunday, July 28, 2013

  Actual Average Record
Temperature  
Mean Temperature 61 °F 75 °F  
Max Temperature 66 °F 88 °F 104 °F (1933)
Min Temperature 55 °F 61 °F 47 °F (1892)
Degree Days  
Heating Degree Days 4 0  
Month to date heating degree days 13 0  
Since 1 June heating degree days 60 51  
Since 1 July heating degree days 13 0  
Cooling Degree Days 0 10  
Month to date cooling degree days 285 266  
Year to date cooling degree days 512 432  
Since 1 June cooling degree days 464 404  
Growing Degree Days 10 (Base 50)    
Moisture  
Dew Point 54 °F    
Average Humidity 82    
Maximum Humidity 100    
Minimum Humidity 63    
Precipitation  
Precipitation T in 0.10 in 1.63 in (2007)
Month to date precipitation 1.87 2.76  
Year to date precipitation 9.98 13.62  
Snow  
Snow 0.00 in 0.00 in 0.00 in (2002)
Month to date snowfall 0.0 0.0  
Since 1 June snowfall T 0.0  
Since 1 July snowfall 0.0 0.0  
Snow Depth 0.00 in    
Sea Level Pressure  
Sea Level Pressure 30.02 in    
Wind  
Wind Speed 8 mph (ESE)    
Max Wind Speed 15 mph    
Max Gust Speed 18 mph    
Visibility 8 miles    
Events Rain    
T = Trace of Precipitation, MM = Missing Value Source: NWS Daily Summary

Daily Weather History Graph

Daily Weather History Graph

Search for Another Location

Airport or City:

Trip Planner

Search our weather history database for the weather conditions in past years. The results will help you decide how hot, cold, wet, or windy it might be!

Date:

Astronomy

Jul. 28, 2013 Rise Set
Actual Time 6:34 AM CDT 9:02 PM CDT
Civil Twilight 6:03 AM CDT 9:34 PM CDT
Nautical Twilight 5:24 AM CDT 10:13 PM CDT
Astronomical Twilight 4:40 AM CDT 10:56 PM CDT
Moon No Moon Rise 1:23 PM CDT (7/28)
Length of Visible Light 15h 30m
Length of Day
14h 28m
Waning Gibbous, 60% of the Moon is Illuminated
Jul 28
Waning Gibbous
Jul 29
Last Quarter
Aug 6
New
Aug 14
First Quarter
Aug 20
Full

Hourly Weather History & Observations

Time (CDT) Temp. Dew Point Humidity Pressure Visibility Wind Dir Wind Speed Gust Speed Precip Events Conditions
12:53 AM 55.9 °F 52.0 °F 87% 30.07 in 10.0 mi Calm Calm - N/A   Clear
1:53 AM 57.0 °F 53.1 °F 87% 30.06 in 10.0 mi Calm Calm - N/A   Overcast
2:53 AM 57.0 °F 54.0 °F 89% 30.05 in 10.0 mi Calm Calm - N/A   Overcast
3:53 AM 57.9 °F 53.1 °F 84% 30.03 in 10.0 mi SE 3.5 mph - N/A   Overcast
4:53 AM 57.0 °F 54.0 °F 89% 30.02 in 10.0 mi East 5.8 mph - N/A   Overcast
5:53 AM 57.0 °F 54.0 °F 89% 30.01 in 10.0 mi East 5.8 mph - N/A   Overcast
6:53 AM 57.0 °F 53.1 °F 87% 30.02 in 10.0 mi ESE 5.8 mph - N/A   Overcast
7:53 AM 57.9 °F 54.0 °F 87% 30.03 in 10.0 mi East 6.9 mph - N/A   Overcast
8:53 AM 59.0 °F 52.0 °F 78% 30.03 in 10.0 mi ESE 8.1 mph - N/A   Overcast
9:53 AM 61.0 °F 53.1 °F 75% 30.01 in 10.0 mi ESE 9.2 mph - N/A   Overcast
10:53 AM 62.1 °F 52.0 °F 70% 30.02 in 10.0 mi SSE 8.1 mph - N/A   Overcast
11:53 AM 63.0 °F 51.1 °F 65% 30.03 in 10.0 mi ESE 9.2 mph - N/A   Overcast
12:02 PM 62.6 °F 51.8 °F 68% 30.07 in 10.0 mi ESE 10.4 mph - N/A   Overcast
12:53 PM 63.0 °F 52.0 °F 67% 30.02 in 10.0 mi ESE 8.1 mph - N/A   Overcast
1:53 PM 66.0 °F 53.1 °F 63% 30.00 in 10.0 mi SE 11.5 mph - N/A   Overcast
2:53 PM 64.0 °F 53.1 °F 67% 30.01 in 10.0 mi SE 9.2 mph - N/A   Overcast
3:53 PM 62.1 °F 54.0 °F 75% 30.01 in 9.0 mi SSE 9.2 mph - N/A   Overcast
4:32 PM 59.0 °F 55.4 °F 88% 30.04 in 4.0 mi ESE 12.7 mph - 0.00 in   Overcast
4:39 PM 59.0 °F 55.4 °F 88% 30.04 in 4.0 mi ESE 12.7 mph - 0.00 in Rain Light Rain
4:48 PM 59.0 °F 55.4 °F 88% 30.03 in 6.0 mi ESE 12.7 mph - 0.00 in Rain Light Rain
4:53 PM 59.0 °F 55.9 °F 90% 30.00 in 9.0 mi ESE 10.4 mph - 0.00 in Rain Light Rain
5:04 PM 60.8 °F 57.2 °F 88% 30.02 in 10.0 mi ESE 12.7 mph - 0.00 in Rain Light Rain
5:40 PM 59.0 °F 55.4 °F 88% 30.03 in 10.0 mi ESE 9.2 mph - 0.00 in   Overcast
5:53 PM 59.0 °F 55.9 °F 90% 30.00 in 10.0 mi ESE 9.2 mph - 0.00 in   Overcast
6:53 PM 57.9 °F 55.0 °F 90% 30.00 in 8.0 mi ESE 10.4 mph - 0.00 in   Overcast
7:51 PM 57.2 °F 55.4 °F 94% 30.03 in 4.0 mi SE 10.4 mph - N/A   Overcast
7:53 PM 57.9 °F 55.9 °F 93% 30.01 in 4.0 mi ESE 9.2 mph - N/A   Overcast
8:20 PM 57.2 °F 55.4 °F 94% 30.02 in 1.8 mi ESE 11.5 mph - N/A   Overcast
8:53 PM 57.9 °F 55.9 °F 93% 29.99 in 2.0 mi ESE 11.5 mph - N/A   Overcast
9:07 PM 57.2 °F 55.4 °F 94% 30.03 in 4.0 mi SE 10.4 mph - N/A   Overcast
9:53 PM 57.9 °F 55.9 °F 93% 30.01 in 8.0 mi ESE 8.1 mph - N/A   Overcast
10:53 PM 57.9 °F 55.9 °F 93% 30.01 in 6.0 mi ESE 6.9 mph - N/A   Overcast
11:34 PM 57.2 °F 57.2 °F 100% 30.04 in 2.5 mi ESE 6.9 mph - N/A   Overcast
11:50 PM 57.2 °F 57.2 °F 100% 30.04 in 1.5 mi SE 6.9 mph - N/A   Overcast
11:53 PM 57.9 °F 57.0 °F 97% 30.01 in 1.5 mi SE 8.1 mph - N/A   Overcast